Wind_Speed
29 31 32 32 33 33 34 35 36 37 38 39 39 41 41 40 41 42 43 44 44 43 43 43 44 44 45 45 44 44 44 43 43 43 43 43 43 43 44 44 44 45 45 45
29 30 30 31 32 34 34 35 36 37 38 39 40 40 40 40 41 42 43 43 43 44 44 44 44 45 45 45 45 45 44 43 43 43 43 43 43 43 43 43 44 45 46 46
29 29 29 31 32 33 34 35 35 37 38 40 41 41 40 39 40 41 42 42 43 43 44 44 44 44 45 45 45 45 44 44 44 44 44 44 44 44 44 44 45 45 46 47
28 28 29 30 31 33 34 35 36 37 39 39 40 42 40 39 40 40 41 41 42 43 43 43 43 44 44 45 45 45 45 45 45 46 46 46 45 46 46 46 47 48 48 48
28 28 29 30 31 32 33 34 35 36 38 39 38 41 39 38 38 38 39 40 41 42 42 42 43 43 43 44 44 44 45 45 46 46 47 47 47 47 48 48 47 48 49 50
28 29 29 30 31 32 33 34 35 36 37 39 36 38 39 36 36 37 38 39 39 40 41 41 42 43 43 43 43 44 44 45 46 46 47 48 48 47 49 49 49 49 50 50
28 29 29 30 30 31 32 33 34 35 37 38 36 38 38 36 36 37 37 38 38 38 40 40 41 41 42 43 43 44 45 45 46 46 47 48 49 48 48 49 50 50 50 50
29 29 28 28 29 30 31 31 32 34 35 36 37 38 36 35 35 36 36 37 37 38 39 40 40 41 42 42 43 44 45 45 46 46 47 47 48 49 49 50 51 51 51 51
29 29 28 28 28 29 30 31 31 33 34 35 36 36 35 34 35 35 35 35 36 36 38 38 39 41 42 42 42 43 44 45 45 45 46 47 47 48 49 49 50 51 51 51
28 29 29 29 29 29 29 29 30 32 33 34 35 34 33 32 33 34 34 35 36 36 37 38 39 40 41 42 42 43 44 44 45 45 46 47 48 49 49 49 49 49 50 51
28 28 28 28 28 28 28 29 30 32 33 34 34 33 32 32 32 32 33 34 35 36 36 37 38 40 41 41 41 42 43 43 44 45 45 46 47 48 49 50 51 51 51 51
27 28 27 27 26 26 27 28 29 30 32 33 34 34 31 31 31 31 31 32 34 35 36 37 37 38 39 40 41 41 42 42 43 44 45 46 46 47 48 49 50 51 51 51
27 27 27 27 28 28 28 28 29 30 31 32 33 33 31 31 31 31 31 32 33 34 35 35 36 37 38 39 40 41 42 43 43 44 44 45 46 47 48 49 50 50 51 51
27 27 27 27 28 28 27 27 27 28 30 31 31 32 31 31 31 31 31 31 32 32 34 34 35 36 37 38 39 39 40 41 43 43 44 45 47 48 48 49 50 50 50 51
26 27 27 28 29 28 28 27 27 29 29 30 30 31 31 31 32 31 31 31 31 32 33 34 34 35 35 36 37 38 39 41 42 43 43 44 45 47 48 49 49 49 50 50
27 27 27 28 28 29 28 27 28 28 29 30 30 29 29 31 31 31 31 31 31 32 33 33 34 34 35 36 37 38 39 40 41 42 43 44 45 46 47 48 49 49 49 49
26 27 28 28 28 29 29 27 28 28 28 29 30 29 29 29 31 31 31 31 31 31 32 32 33 34 34 35 36 37 37 38 40 41 42 43 44 45 45 47 47 47 48 48
25 27 28 28 28 29 27 26 27 28 28 29 29 29 29 29 30 31 31 30 30 30 31 31 32 32 33 34 35 36 36 37 37 38 39 40 41 42 43 43 44 44 44 45
25 26 28 28 29 29 27 26 27 28 28 29 30 29 29 29 29 30 30 30 30 30 30 31 31 31 32 33 34 35 36 36 36 37 37 37 38 39 40 40 40 41 42 42
26 26 27 28 29 29 27 27 27 28 29 28 29 29 29 29 29 28 29 30 31 31 31 31 30 30 31 32 33 33 34 34 35 34 34 35 36 37 37 38 38 38 38 39
25 26 27 28 29 29 27 27 27 28 28 27 28 27 28 28 28 29 29 29 29 30 31 31 30 30 30 30 31 32 32 32 33 33 33 34 34 35 36 36 36 36 36 36
26 27 27 27 28 28 27 27 27 27 27 27 27 27 27 27 27 28 28 28 29 29 30 30 30 30 30 30 31 31 31 30 31 31 32 32 33 33 33 34 35 35 35 35
25 25 25 26 26 26 26 27 27 27 27 27 27 27 27 26 27 27 28 28 29 29 29 29 29 30 30 31 30 30 29 29 29 30 30 31 31 31 32 32 33 34 34 34
23 24 24 25 24 25 26 27 27 27 27 27 27 26 26 26 27 28 28 28 29 29 29 29 29 29 30 30 30 29 29 28 28 28 29 30 30 31 31 31 32 32 33 33
23 24 24 24 24 24 25 26 26 26 26 26 26 27 27 26 27 27 27 27 28 28 28 28 28 28 28 28 29 29 29 28 28 29 29 29 30 30 31 31 31 31 31 32
22 23 24 23 23 25 24 25 25 25 25 25 25 25 25 25 25 26 26 26 26 26 26 26 26 26 26 27 27 28 28 28 28 28 28 29 29 29 30 30 30 30 30 29
Wind_Direction
257 257 256 255 255 256 256 257 256 255 255 256 256 256 256 255 256 256 257 257 256 256 256 256 257 256 257 258 258 258 258 259 259 260 260 259 259 259 257 256 255 255 255 256
258 259 259 257 256 255 256 258 257 257 257 258 258 258 257 257 257 257 258 257 257 258 258 258 258 257 258 258 258 258 258 258 258 259 259 259 259 257 256 255 254 255 255 257
258 259 260 259 258 257 257 258 259 259 259 260 260 259 258 258 258 258 258 258 259 259 260 259 259 259 258 258 258 258 257 258 258 258 258 258 258 258 256 256 256 256 256 257
259 258 258 259 261 261 261 261 261 262 262 262 261 262 259 259 259 258 258 258 259 259 259 260 260 260 259 258 257 257 257 258 258 258 258 258 259 259 258 258 258 257 257 257
258 259 260 261 261 263 263 263 262 263 264 263 262 263 260 259 259 259 258 258 259 259 259 260 260 259 259 258 257 257 257 258 259 258 259 258 259 260 259 259 258 258 258 258
262 261 262 264 264 264 264 263 263 262 263 262 262 263 263 259 260 260 259 259 259 260 260 260 259 259 259 259 258 258 258 259 259 259 259 259 259 259 259 259 258 258 258 259
265 264 265 266 266 264 263 263 264 263 262 263 262 263 264 262 262 262 261 260 261 261 261 260 260 259 259 259 259 259 259 258 258 259 259 259 258 259 259 259 258 258 258 259
269 267 267 268 266 265 263 263 263 264 265 266 264 265 265 264 264 264 264 263 262 261 261 261 260 260 260 260 260 260 260 259 260 260 260 260 259 259 260 261 259 258 258 259
268 268 268 267 266 265 263 261 262 264 265 266 266 266 265 264 264 265 265 264 264 263 263 263 262 261 261 261 261 261 261 261 261 261 261 261 260 260 261 261 260 259 259 259
266 268 267 266 265 264 265 264 263 261 264 267 267 267 266 264 265 266 267 266 266 266 264 263 263 263 262 262 262 262 263 262 262 262 262 263 263 262 262 261 261 262 262 262
266 268 269 267 265 265 265 264 262 262 263 266 268 267 267 267 268 270 270 269 267 267 266 266 265 264 264 263 262 263 263 262 262 263 263 262 263 263 263 263 262 263 263 264
265 268 269 268 266 267 268 267 264 264 264 264 267 268 269 269 271 272 273 272 271 270 269 268 267 266 265 265 263 263 263 263 263 263 263 263 263 264 264 263 264 264 263 263
265 267 269 268 266 266 267 265 264 264 265 266 267 268 268 270 271 272 274 274 274 272 271 269 268 267 266 266 266 265 265 263 264 264 264 264 264 264 264 264 265 265 265 264
266 265 266 267 268 268 267 265 263 264 266 268 269 270 268 269 270 270 272 273 273 273 272 271 271 269 268 268 268 268 267 266 266 265 265 265 265 265 265 265 265 266 266 265
266 266 265 264 266 266 266 265 264 266 268 270 271 272 269 268 269 271 272 273 273 273 273 273 272 272 271 270 270 270 270 270 269 268 267 266 267 266 266 266 266 265 265 265
266 267 266 264 264 265 264 264 265 267 269 271 272 272 271 267 268 271 273 272 272 273 273 274 274 273 273 272 273 272 272 272 271 270 269 267 268 268 267 267 267 267 266 265
270 269 267 265 265 265 264 265 266 268 270 273 274 275 274 270 269 271 273 273 273 273 274 275 275 275 274 274 274 274 274 275 274 273 272 270 270 269 268 268 268 267 266 265
272 272 271 267 265 265 268 267 268 270 272 274 275 275 275 274 271 271 272 274 275 276 277 277 277 276 276 276 276 276 276 276 276 276 275 274 273 271 271 269 268 266 266 264
272 273 271 269 267 268 269 270 271 272 273 275 275 275 274 273 273 273 274 275 278 280 280 280 279 279 279 279 279 278 277 278 278 277 276 275 275 274 272 270 269 267 266 264
272 272 272 269 269 271 272 272 273 275 275 275 275 274 272 272 272 274 276 278 280 281 281 282 281 281 281 282 282 281 280 279 278 277 276 276 275 274 273 272 270 268 266 265
272 273 272 270 269 271 273 274 276 278 279 278 277 274 272 273 275 276 278 279 280 282 282 282 281 282 282 283 284 283 282 281 279 277 275 276 276 274 272 270 269 268 266 266
274 273 271 270 270 272 273 275 278 280 279 278 277 275 275 275 276 277 279 280 280 282 282 282 282 282 283 284 285 285 284 282 281 279 277 276 276 275 272 270 269 268 267 266
276 274 272 270 271 273 272 274 277 278 277 276 276 276 276 276 277 277 278 279 281 283 283 282 282 282 283 284 286 286 286 284 282 281 280 278 277 275 274 272 270 269 267 266
276 274 271 271 271 273 272 274 276 277 276 275 275 274 275 277 277 278 279 280 282 283 284 283 282 283 285 286 287 288 287 286 284 283 283 281 279 277 275 275 274 272 270 268
277 275 273 273 273 274 275 275 276 277 277 276 274 273 274 277 278 279 280 282 282 283 283 283 284 285 286 287 288 288 287 286 285 285 283 282 280 277 277 276 275 274 272 270
277 277 276 276 275 275 276 276 277 276 275 275 274 274 275 276 279 281 282 283 284 284 284 285 285 287 288 289 288 288 286 284 284 285 285 283 281 279 277 276 275 274 272 271
Height
5675 5677 5678 5680 5682 5683 5684 5685 5687 5689 5690 5691 5693 5695 5698 5700 5702 5704 5706 5708 5711 5713 5716 5718 5720 5721 5724 5726 5728 5729 5731 5732 5733 5734 5735 5736 5737 5738 5739 5741 5744 5746 5749 5751
5668 5669 5671 5672 5673 5674 5675 5676 5678 5680 5681 5682 5683 5685 5688 5690 5693 5694 5696 5698 5700 5703 5705 5707 5709 5711 5713 5715 5717 5719 5720 5721 5723 5724 5725 5726 5727 5728 5730 5731 5734 5736 5738 5740
5660 5663 5663 5664 5665 5666 5667 5668 5669 5671 5671 5672 5673 5675 5679 5681 5682 5684 5686 5688 5690 5692 5694 5696 5697 5699 5702 5704 5706 5707 5709 5710 5712 5713 5714 5716 5717 5719 5720 5722 5724 5726 5728 5730
5653 5655 5655 5656 5657 5657 5659 5660 5660 5661 5661 5662 5664 5664 5669 5671 5672 5674 5676 5678 5679 5681 5683 5685 5686 5688 5690 5692 5694 5696 5697 5699 5700 5702 5703 5705 5707 5708 5710 5711 5713 5715 5716 5718
5646 5647 5647 5648 5650 5650 5651 5651 5651 5651 5651 5652 5654 5654 5659 5661 5662 5664 5666 5668 5669 5671 5672 5674 5676 5677 5679 5681 5682 5684 5685 5687 5689 5690 5691 5693 5695 5697 5698 5700 5701 5703 5705 5707
5638 5639 5640 5641 5641 5641 5641 5642 5642 5642 5641 5642 5646 5645 5648 5652 5654 5655 5657 5658 5659 5661 5662 5663 5664 5666 5668 5669 5671 5673 5674 5675 5677 5678 5679 5681 5683 5684 5686 5688 5690 5692 5693 5695
5631 5632 5632 5632 5632 5633 5633 5633 5633 5632 5632 5634 5638 5636 5639 5644 5645 5645 5646 5648 5649 5651 5651 5652 5654 5655 5657 5658 5660 5661 5662 5663 5664 5666 5667 5668 5670 5672 5673 5675 5677 5679 5681 5682
5622 5624 5624 5624 5624 5624 5625 5625 5625 5625 5625 5626 5628 5628 5633 5635 5635 5636 5636 5638 5639 5641 5641 5642 5643 5644 5645 5647 5648 5649 5650 5651 5652 5654 5655 5656 5658 5659 5661 5662 5664 5666 5668 5669
5614 5615 5617 5616 5616 5616 5616 5616 5617 5617 5617 5617 5618 5621 5624 5625 5626 5627 5628 5629 5630 5631 5631 5632 5633 5633 5634 5636 5637 5637 5638 5639 5641 5642 5643 5644 5645 5647 5648 5649 5650 5652 5654 5656
5607 5607 5609 5608 5608 5608 5608 5609 5609 5609 5608 5608 5610 5612 5615 5616 5617 5618 5619 5619 5620 5621 5621 5622 5622 5622 5623 5624 5625 5626 5627 5628 5629 5630 5631 5632 5633 5634 5635 5636 5637 5639 5640 5642
5599 5599 5600 5601 5600 5601 5601 5601 5601 5601 5601 5602 5602 5607 5607 5608 5608 5609 5609 5609 5610 5610 5611 5611 5611 5611 5612 5613 5613 5615 5615 5616 5617 5617 5618 5620 5620 5621 5622 5623 5625 5626 5627 5628
5592 5592 5592 5593 5594 5593 5593 5594 5594 5595 5594 5595 5595 5600 5599 5600 5600 5600 5600 5600 5600 5600 5601 5601 5601 5601 5601 5602 5603 5603 5604 5604 5605 5605 5606 5607 5608 5609 5609 5610 5611 5612 5613 5614
5584 5584 5584 5585 5588 5587 5586 5586 5586 5587 5587 5587 5587 5592 5592 5591 5591 5592 5592 5591 5591 5590 5590 5591 5590 5590 5591 5591 5591 5592 5592 5593 5593 5593 5594 5594 5595 5596 5596 5597 5597 5598 5599 5600
5577 5577 5579 5579 5578 5579 5579 5580 5580 5579 5579 5580 5581 5583 5584 5583 5583 5583 5583 5582 5582 5581 5581 5581 5580 5580 5580 5580 5580 5580 5581 5581 5581 5581 5581 5582 5582 5582 5582 5583 5584 5585 5586 5587
5570 5570 5571 5571 5571 5571 5572 5573 5573 5573 5573 5573 5574 5574 5575 5574 5574 5574 5573 5573 5573 5572 5571 5571 5571 5570 5570 5570 5569 5569 5569 5569 5569 5569 5569 5569 5569 5569 5569 5569 5570 5571 5572 5573
5562 5563 5563 5564 5564 5563 5564 5566 5565 5565 5566 5566 5566 5567 5567 5565 5565 5565 5565 5564 5564 5563 5562 5562 5561 5561 5560 5559 5559 5558 5558 5557 5557 5557 5556 5556 5556 5555 5555 5556 5556 5557 5558 5558
5556 5556 5556 5556 5556 5556 5557 5560 5559 5559 5559 5558 5558 5560 5558 5557 5557 5556 5556 5556 5555 5554 5554 5553 5552 5551 5550 5549 5548 5547 5546 5545 5545 5544 5543 5543 5543 5542 5542 5542 5542 5543 5543 5544
5549 5548 5548 5548 5549 5549 5554 5552 5551 5551 5551 5551 5550 5551 5550 5549 5549 5548 5548 5547 5546 5546 5545 5544 5543 5541 5540 5539 5538 5537 5536 5534 5533 5532 5531 5531 5530 5529 5529 5529 5529 5529 5530 5531
5541 5541 5540 5540 5540 5541 5545 5544 5543 5543 5544 5543 5542 5542 5542 5541 5541 5540 5539 5539 5538 5537 5536 5534 5533 5532 5531 5529 5528 5526 5525 5524 5522 5521 5520 5519 5518 5517 5517 5517 5517 5517 5517 5518
5534 5534 5534 5533 5533 5534 5538 5537 5535 5536 5536 5536 5534 5534 5533 5533 5533 5534 5532 5531 5530 5528 5527 5525 5524 5523 5521 5520 5518 5516 5515 5513 5512 5511 5510 5508 5507 5506 5506 5505 5505 5505 5506 5507
5527 5527 5526 5526 5525 5527 5529 5528 5528 5530 5530 5527 5526 5526 5525 5525 5525 5525 5523 5522 5521 5520 5518 5517 5515 5514 5512 5511 5509 5507 5505 5503 5502 5500 5499 5498 5497 5496 5495 5495 5494 5495 5495 5496
5520 5520 5520 5519 5519 5522 5522 5521 5521 5521 5520 5519 5518 5518 5517 5517 5516 5516 5515 5514 5513 5512 5510 5508 5507 5505 5504 5502 5500 5497 5495 5494 5492 5490 5489 5488 5486 5485 5484 5484 5484 5484 5484 5485
5513 5513 5512 5513 5515 5514 5513 5513 5513 5512 5512 5511 5510 5510 5510 5509 5509 5508 5507 5506 5505 5503 5502 5500 5499 5497 5495 5493 5491 5489 5486 5484 5483 5481 5479 5478 5476 5475 5474 5474 5473 5473 5474 5475
5506 5506 5505 5505 5506 5506 5506 5505 5505 5504 5504 5503 5503 5503 5502 5502 5501 5500 5499 5498 5497 5495 5494 5492 5490 5488 5487 5484 5482 5480 5478 5476 5474 5472 5470 5469 5467 5466 5465 5464 5463 5463 5463 5464
5500 5499 5499 5499 5500 5499 5498 5498 5498 5497 5496 5496 5495 5495 5495 5494 5493 5492 5491 5490 5489 5487 5485 5484 5482 5480 5478 5476 5474 5471 5469 5467 5465 5463 5462 5460 5458 5457 5456 5455 5454 5454 5454 5454
5494 5493 5492 5493 5493 5492 5492 5491 5490 5490 5489 5489 5488 5488 5487 5487 5486 5485 5484 5482 5481 5479 5477 5476 5474 5472 5470 5468 5465 5463 5460 5458 5457 5455 5453 5451 5450 5448 5447 5446 5446 5445 5445 5445